Theta_e
316 314 312 312 314 314 313 314 316 317 317 316 316 316 316 316 316 316 317 316 316 316 316 317 317 318 317 317 316 316 316 315 315 316 318 321 320 320 320 321 321 320 320 321 320 319 320 324 329 328 332 337 336 337 332 333 340 348 355 351 345 347 346 342 342 341 342 342 341 341 342 343 342 339 338 338 338 338 338 338 338 338 336 336 334 330 328 327
314 313 311 311 313 314 313 313 315 317 317 317 316 316 316 316 316 316 316 316 316 316 316 317 317 318 318 318 317 317 317 317 318 319 321 321 321 320 320 321 322 321 319 319 318 319 322 326 329 330 340 345 338 338 336 332 341 353 355 350 344 347 345 339 339 339 338 340 341 342 342 342 341 339 337 340 340 338 338 337 337 338 336 334 333 327 321 320
313 312 310 310 312 313 313 312 314 317 317 317 316 316 316 315 316 316 316 316 316 315 316 317 317 317 318 318 317 319 320 321 325 327 325 323 323 321 321 321 321 320 318 319 319 319 322 328 330 333 346 346 337 340 339 338 344 346 351 352 343 341 341 337 339 340 338 338 339 342 342 341 340 337 338 340 340 339 338 336 336 337 336 337 335 325 317 319
311 309 308 309 311 313 313 312 314 316 317 317 317 316 316 316 316 315 316 316 315 315 316 316 317 317 318 318 317 321 326 330 333 329 325 326 325 323 323 321 320 319 319 319 320 321 322 329 331 336 351 346 340 347 341 339 344 340 348 352 341 338 340 337 336 337 338 337 338 341 340 339 339 337 338 339 340 340 337 336 337 337 337 339 335 325 318 318
308 307 307 307 310 313 312 312 313 316 317 317 317 316 316 316 315 316 316 315 315 315 316 316 317 317 318 319 319 322 329 334 332 326 325 326 325 325 323 320 320 320 321 322 323 325 326 330 333 342 354 350 347 351 339 336 343 341 342 343 339 338 339 337 335 336 337 338 338 339 339 338 337 338 339 340 344 344 339 339 339 338 339 339 334 325 320 319
305 304 305 306 309 313 312 311 312 315 317 317 317 316 316 316 315 316 315 315 315 315 316 317 317 317 318 321 320 322 329 332 327 325 326 327 326 325 324 322 322 321 322 324 324 326 329 333 339 350 358 351 346 345 336 337 346 346 338 336 338 336 337 336 335 336 336 337 337 338 338 337 338 339 339 339 343 343 340 341 341 338 336 332 329 327 326 327
303 302 303 306 310 312 312 311 312 314 317 318 317 316 316 316 315 316 315 316 315 315 317 317 318 317 318 323 324 326 332 333 327 327 328 327 327 326 326 325 324 323 323 324 324 326 330 336 341 349 354 345 342 343 338 339 344 346 339 335 337 335 336 335 334 336 335 336 336 336 336 337 341 340 338 338 338 339 340 339 336 333 330 328 330 333 332 328
304 303 304 307 310 312 311 311 311 313 316 318 317 317 316 316 315 315 316 316 315 316 318 318 319 317 318 324 328 331 336 335 328 327 328 328 328 327 327 326 326 325 325 325 325 328 333 336 336 342 347 339 340 342 338 340 340 340 338 335 335 335 336 335 335 335 334 335 334 335 338 339 341 339 338 338 336 338 339 336 335 332 331 332 336 337 334 329
307 304 305 308 310 312 311 310 311 313 316 317 318 317 316 316 315 316 316 316 315 317 318 319 319 318 319 322 326 330 333 331 327 328 329 329 329 328 327 327 327 325 325 325 325 329 334 335 334 341 342 334 337 340 338 344 339 333 335 334 334 335 335 335 336 335 333 333 334 337 340 339 338 340 339 338 338 338 338 337 336 336 336 336 337 337 335 334
311 307 305 306 309 310 310 310 311 313 315 317 318 317 316 315 315 316 315 316 316 317 318 318 318 318 321 324 326 328 330 326 327 328 328 329 329 328 328 327 328 326 325 326 326 328 332 333 332 335 335 333 337 337 336 343 338 331 332 332 334 335 334 335 335 335 333 333 336 340 342 340 337 342 343 338 339 338 337 338 336 336 337 335 337 336 331 331
315 312 308 306 308 309 310 310 310 312 315 317 317 317 316 315 315 316 315 316 316 317 318 318 319 318 321 327 327 326 327 326 327 327 327 328 328 328 328 328 328 327 326 327 327 328 329 330 330 332 333 333 335 335 335 336 333 331 331 332 333 334 334 335 337 336 334 335 337 339 340 339 337 342 344 340 340 339 337 339 337 336 334 334 337 336 330 329
316 315 312 308 306 308 309 309 310 312 315 317 317 317 316 315 315 316 316 316 316 317 317 317 318 318 322 329 328 325 325 325 326 326 328 329 329 329 328 328 328 328 328 328 328 328 329 328 329 333 332 330 334 337 334 332 333 332 333 334 333 335 336 335 336 335 335 335 335 338 341 341 339 343 342 340 341 339 339 340 338 335 334 335 337 336 332 329
316 316 315 311 307 307 308 309 310 312 315 316 317 317 316 316 316 316 316 316 316 317 317 318 318 319 324 329 326 324 321 324 326 326 328 329 329 329 329 329 329 329 329 329 329 329 330 330 330 332 331 332 335 336 334 334 340 337 335 339 335 334 336 334 333 334 334 334 333 339 346 343 341 343 341 340 341 341 340 339 338 337 336 335 336 336 334 329
317 317 317 315 310 307 307 308 309 311 315 316 317 317 317 316 316 316 316 316 316 316 317 318 318 321 326 326 322 322 323 324 327 328 328 329 329 329 329 329 329 328 329 329 329 329 330 330 331 334 334 333 333 336 340 342 347 345 336 341 344 335 333 334 332 334 334 333 333 339 347 345 342 343 340 338 341 341 340 339 338 339 339 337 336 335 335 331
317 317 317 317 313 309 307 308 309 312 314 316 317 317 317 315 315 316 316 316 317 317 318 318 320 324 327 326 322 322 324 324 326 328 327 328 329 328 329 329 329 329 329 329 330 330 330 331 335 339 336 334 339 344 349 348 350 354 342 337 344 337 333 335 331 334 335 332 331 336 344 343 340 341 339 336 339 341 339 338 339 340 339 338 336 334 334 333
317 317 317 318 316 312 309 308 309 311 315 317 317 317 316 316 316 315 316 317 317 317 318 319 321 323 324 324 323 322 324 324 325 326 327 329 328 329 329 328 330 329 329 330 330 329 329 332 336 338 338 340 349 350 351 350 345 350 349 341 341 336 332 334 332 332 333 332 331 335 344 344 340 340 338 336 338 339 338 338 339 340 339 338 335 334 335 334
317 317 317 317 317 314 310 309 309 312 315 317 318 318 316 315 316 315 316 317 318 318 318 320 322 321 322 323 322 323 324 323 324 326 328 327 328 330 329 328 330 328 330 330 329 332 332 334 337 340 345 348 352 353 346 342 339 340 346 344 342 340 333 331 333 332 330 332 333 336 345 344 340 340 337 336 337 337 338 338 339 340 339 337 335 334 334 333
316 316 317 317 317 315 311 309 311 313 316 318 320 318 315 315 315 315 317 319 319 320 321 321 322 321 322 324 323 323 323 323 324 325 327 327 329 331 328 330 330 330 337 337 332 336 337 340 345 348 351 349 352 354 341 338 342 342 344 341 337 340 336 331 332 332 331 334 336 336 340 341 339 339 337 336 336 337 337 338 338 339 339 338 336 334 333 332
315 316 316 317 317 315 312 311 312 314 316 320 322 320 318 321 320 318 319 321 320 320 323 323 325 325 323 325 325 323 323 324 324 325 326 327 328 329 329 329 330 332 341 345 335 336 346 347 343 343 345 346 349 350 343 343 348 348 349 346 339 338 336 331 332 331 331 335 336 336 338 340 339 338 338 337 336 337 337 337 338 338 339 340 338 335 333 333
316 316 316 317 317 315 312 311 313 316 319 322 324 323 323 328 333 330 324 324 321 319 321 322 323 324 322 322 323 323 323 322 325 325 325 327 327 328 329 329 338 341 341 348 337 333 352 353 342 343 342 345 347 344 345 345 345 350 348 343 340 339 336 330 329 330 332 336 336 336 337 339 338 336 336 336 336 337 337 337 338 339 339 340 338 335 334 334
316 316 317 317 317 315 313 312 316 320 320 322 326 326 325 325 330 330 325 325 324 321 322 321 320 320 319 320 320 322 323 323 324 324 324 325 326 329 329 334 345 343 336 345 343 340 355 348 339 346 342 340 343 342 344 341 341 348 346 342 338 335 334 331 329 331 332 336 335 335 337 337 336 335 335 335 336 337 336 337 338 338 339 338 338 337 334 334
317 317 317 317 317 316 313 313 319 321 320 323 326 326 323 321 324 325 324 327 326 323 324 324 322 322 322 321 321 322 322 323 323 324 326 324 326 329 330 336 344 342 337 343 352 353 355 347 340 343 338 336 338 339 340 339 343 345 342 342 334 330 333 328 329 333 333 336 335 334 337 336 334 333 334 334 335 335 334 335 336 336 338 337 336 337 335 334
317 317 317 317 317 316 313 316 321 321 322 324 324 322 321 322 324 323 323 327 327 326 326 326 326 325 326 324 322 322 322 324 324 324 325 324 327 330 330 336 342 342 339 342 351 344 339 345 345 338 333 336 337 337 339 339 340 342 344 341 330 333 342 332 329 332 331 336 335 333 335 334 333 332 333 332 331 333 332 332 334 334 336 336 335 336 334 332
318 317 318 317 317 316 314 318 321 318 320 324 323 322 322 323 325 324 327 331 328 326 324 324 325 324 325 324 322 322 322 323 324 324 324 324 328 328 329 335 338 340 339 340 345 338 335 342 339 333 333 339 341 339 344 342 335 339 349 346 333 334 344 339 334 336 337 337 335 335 333 330 334 334 332 333 329 331 332 331 333 334 334 335 335 335 333 331
318 317 318 318 318 317 314 320 320 313 318 324 322 323 323 323 323 323 332 335 328 327 325 320 323 323 322 323 321 322 323 322 323 325 324 324 326 326 326 330 334 340 338 336 340 340 340 337 331 333 334 337 344 342 343 342 337 340 345 345 341 335 337 339 341 344 345 341 336 339 334 331 340 339 334 336 332 330 333 332 333 334 334 336 336 335 333 331
318 318 318 318 318 316 316 323 318 312 320 323 322 324 323 322 322 323 336 339 329 328 324 319 322 323 321 321 322 322 322 323 323 323 323 323 324 325 326 327 332 337 335 335 339 338 338 333 330 334 335 339 347 341 336 340 343 339 339 343 347 344 342 345 349 346 341 338 336 339 337 334 340 342 340 341 335 331 333 333 333 332 334 337 336 334 334 332
318 319 318 318 319 316 319 322 314 314 322 322 323 325 321 321 322 322 332 334 330 329 323 321 320 320 321 321 322 324 322 324 324 321 323 323 323 324 326 328 330 330 331 332 333 332 335 334 330 333 339 344 345 337 332 343 346 336 336 344 345 346 347 346 350 347 343 341 341 344 344 337 336 342 347 345 336 335 335 333 334 332 334 337 335 334 334 332
318 319 318 318 318 316 317 317 313 316 320 320 323 323 320 321 323 329 332 323 324 328 323 321 320 319 322 321 322 325 325 324 322 321 322 322 323 324 324 326 327 329 330 332 331 331 333 336 332 335 343 341 343 341 334 339 344 335 335 341 338 341 344 345 348 347 349 344 335 343 348 339 338 347 355 348 335 335 337 335 336 334 333 336 336 335 334 333
318 319 318 318 318 318 318 315 314 316 316 317 321 320 318 322 327 336 336 325 322 326 323 318 320 320 321 322 321 322 323 321 322 325 323 321 323 324 324 326 325 326 327 331 335 333 330 334 333 338 343 338 339 340 333 337 341 334 334 336 337 341 343 349 351 347 352 346 333 337 343 339 341 349 354 346 335 340 348 345 344 340 334 334 337 336 335 334
319 319 318 318 318 318 317 315 315 315 315 317 319 318 319 331 340 329 322 325 327 326 322 318 321 321 321 321 321 321 322 320 322 324 323 322 323 322 324 325 325 329 330 331 333 330 329 332 331 335 338 333 332 332 331 337 336 334 338 339 339 345 351 356 355 349 348 343 335 336 340 339 338 343 349 341 334 346 355 348 344 342 334 333 337 337 335 335
318 318 318 318 317 317 317 317 316 314 317 319 318 322 325 336 346 327 315 324 329 325 322 319 321 321 321 321 321 322 321 320 322 321 322 324 322 323 323 324 329 336 336 333 331 327 326 328 327 330 332 330 332 332 332 334 333 337 347 343 334 338 349 353 351 349 342 336 336 338 339 340 337 342 352 349 343 348 350 345 344 343 335 333 337 337 335 335
318 318 319 319 318 318 318 320 316 315 319 320 322 338 341 327 325 325 324 327 328 327 323 320 321 320 321 322 321 322 320 321 322 320 322 323 323 326 324 326 337 336 326 326 328 327 329 333 329 326 330 331 334 336 331 331 336 337 342 343 338 335 340 342 338 340 340 335 335 336 334 334 337 343 349 349 348 347 346 346 347 346 338 332 335 336 334 335
318 319 319 319 320 319 320 319 317 318 321 322 330 351 351 326 321 328 327 325 331 332 322 320 322 320 321 321 320 321 320 321 322 320 322 323 324 326 323 326 336 334 328 327 326 323 325 330 328 325 328 329 332 335 327 328 336 335 334 338 339 338 338 336 333 334 335 334 333 334 333 332 336 342 346 348 346 344 345 344 344 348 343 333 333 335 333 333
318 319 318 320 320 320 321 320 321 323 321 325 341 350 334 323 332 336 324 323 331 327 320 322 321 319 320 320 320 321 319 321 321 320 321 321 321 323 323 323 322 330 338 331 324 326 324 324 327 326 328 327 329 334 331 333 335 334 339 338 336 340 340 337 338 338 336 333 334 332 329 334 338 338 343 348 341 341 344 340 339 343 344 336 331 332 333 333
318 318 319 321 320 321 322 323 325 323 323 336 351 343 325 321 334 339 333 332 328 321 324 324 320 319 319 320 320 321 319 320 321 320 320 320 322 325 326 324 321 326 334 327 322 326 322 322 329 327 327 326 325 328 330 331 329 328 334 332 327 337 343 338 339 343 341 335 334 332 328 337 345 338 339 343 338 340 341 336 335 336 337 337 333 332 333 334
317 318 320 321 321 323 321 323 324 320 330 348 345 334 330 329 333 337 337 335 326 324 328 326 323 318 315 319 321 320 320 321 321 320 320 320 322 327 325 323 323 325 337 340 331 324 318 321 328 323 323 327 324 324 325 325 327 328 328 328 329 332 339 337 331 335 339 334 331 332 332 336 342 339 339 341 338 341 339 333 334 335 337 340 339 335 334 335
317 319 321 321 323 324 322 325 324 322 337 347 336 335 340 337 333 330 329 328 326 328 327 325 327 320 315 317 319 321 320 320 320 318 322 324 321 326 326 320 322 323 334 343 332 327 329 328 331 325 321 324 326 325 326 326 330 330 325 331 333 325 332 342 334 329 333 333 331 331 334 334 333 338 343 341 338 340 338 334 334 338 339 341 343 338 335 336
316 318 321 324 324 324 324 325 323 329 340 342 338 343 342 336 332 327 325 325 326 328 327 326 328 324 319 316 320 324 317 318 322 319 322 323 319 325 324 320 324 323 324 333 328 331 337 328 328 331 323 324 327 323 324 327 330 329 326 330 332 325 327 332 331 330 328 330 331 328 329 332 332 339 340 334 338 341 338 336 336 339 339 338 340 338 335 337
316 322 329 328 324 324 324 324 328 337 340 335 338 340 332 330 330 325 324 325 324 326 330 330 328 326 325 320 322 326 318 320 324 319 319 319 319 325 323 321 325 321 323 332 328 332 341 327 322 330 327 324 328 328 328 330 326 326 326 326 332 337 335 327 328 334 331 331 334 327 324 332 340 347 340 332 338 341 336 337 337 336 339 337 337 338 337 335
316 325 333 326 323 325 325 325 330 338 337 336 340 336 325 325 325 321 324 324 323 326 332 334 327 326 330 327 326 327 322 322 322 320 321 321 322 324 322 324 324 322 325 327 328 336 341 327 321 332 333 323 323 328 333 332 324 325 326 322 324 330 332 329 327 331 334 337 339 333 326 333 344 345 342 336 336 338 338 338 336 336 339 337 336 340 339 335
318 325 330 324 322 324 324 326 330 336 336 335 336 330 323 323 322 322 323 322 323 324 326 328 325 327 330 328 329 328 325 324 320 321 323 320 323 325 324 325 322 324 329 329 334 338 334 329 325 328 326 322 327 332 332 330 324 330 332 328 331 332 328 329 325 326 336 336 337 338 330 332 339 335 336 336 334 337 337 334 335 336 337 336 338 341 340 337
321 326 327 322 322 322 324 331 335 336 333 331 330 326 323 323 322 321 322 321 323 323 323 326 325 327 329 329 331 329 327 328 323 322 322 320 326 329 326 325 323 329 334 330 330 335 347 351 332 322 322 322 327 328 324 325 325 330 333 331 338 338 334 336 329 325 330 327 329 338 332 334 343 338 336 337 335 337 335 333 339 342 341 342 346 346 341 339
324 325 324 319 321 322 324 333 337 334 330 327 327 324 323 323 322 322 323 322 323 322 323 327 325 326 329 328 330 327 326 330 327 323 325 324 325 326 324 324 324 329 335 334 330 335 350 347 325 326 343 340 334 337 336 333 329 326 328 330 330 328 336 347 340 332 331 325 327 333 330 339 350 340 335 337 336 335 333 335 344 346 346 351 355 352 345 341
321 320 322 319 319 321 325 333 338 339 336 329 326 325 324 324 324 325 326 324 324 324 325 326 323 324 327 326 327 327 324 326 327 327 328 327 324 323 324 328 329 331 336 340 340 337 336 335 331 337 346 340 337 345 342 336 335 332 332 333 328 327 334 334 332 338 334 324 329 337 335 344 350 337 332 335 334 336 336 336 342 346 349 353 354 349 345 344
319 322 324 321 320 323 330 336 337 337 336 330 328 329 325 326 326 326 329 328 326 325 324 325 324 323 324 323 325 327 325 325 328 329 328 328 325 323 326 333 334 335 344 352 353 345 338 347 356 347 337 332 331 333 329 326 332 333 332 330 324 326 332 324 325 339 334 323 332 342 337 339 342 334 334 337 336 338 339 338 340 343 347 352 352 349 350 351
322 327 329 328 326 327 331 333 328 330 334 331 330 331 328 328 328 326 328 328 326 325 324 325 325 322 324 325 325 328 327 325 327 328 328 327 326 324 327 332 330 336 356 363 360 357 347 348 359 352 342 338 335 334 332 328 325 324 324 326 323 324 332 329 328 335 334 327 329 335 332 329 331 333 336 339 340 339 340 341 341 343 347 351 353 352 353 353
320 325 329 328 330 332 333 332 328 329 333 330 331 334 330 329 328 325 327 327 324 324 324 325 325 323 326 328 328 330 331 328 328 327 327 327 326 327 329 332 336 348 359 350 349 363 349 331 337 344 338 334 332 330 330 326 322 320 320 323 325 325 329 331 331 331 333 329 325 331 336 330 329 335 337 337 340 339 341 344 344 347 349 349 350 352 353 352
319 324 325 323 327 332 332 331 329 329 330 329 332 333 329 327 328 326 328 328 325 324 324 329 334 329 326 326 326 331 334 332 333 332 329 328 328 330 331 330 337 349 348 337 347 371 355 328 326 334 332 333 333 329 328 326 323 323 323 323 326 327 326 331 336 336 337 334 330 337 341 332 330 336 335 335 338 337 339 341 342 345 347 345 348 352 353 352
319 322 323 321 324 327 326 326 328 329 329 329 333 334 329 329 330 326 326 327 329 327 321 326 336 332 325 324 325 331 333 327 329 335 335 333 333 335 335 330 329 334 337 338 345 358 352 333 332 338 337 339 339 329 328 329 323 323 326 327 330 329 327 333 335 334 337 336 337 345 342 334 334 336 332 334 335 335 336 337 339 342 344 346 350 353 353 353
319 320 320 320 321 323 323 324 326 328 329 328 332 335 330 328 329 327 325 326 330 333 325 324 331 329 325 324 323 327 331 327 328 333 331 333 338 341 339 336 332 328 334 342 341 343 344 336 342 351 340 337 343 334 330 330 325 326 330 331 334 330 328 334 335 335 338 333 334 343 338 332 335 334 333 334 334 336 338 338 340 341 343 346 347 346 348 350
315 317 317 318 320 321 323 325 324 325 330 330 331 334 331 328 327 324 325 326 326 329 327 327 334 334 333 335 330 328 331 331 331 332 329 328 333 339 339 339 339 332 335 342 339 345 352 340 343 352 334 331 343 335 329 336 332 333 335 330 330 330 327 328 332 339 343 336 334 336 332 332 337 335 335 335 334 338 339 339 342 341 341 345 345 344 346 346
315 316 317 317 321 322 321 323 323 324 329 329 328 329 326 324 323 322 327 331 327 326 327 330 338 338 337 339 336 334 333 332 331 332 331 327 326 332 335 336 339 337 340 345 341 348 360 344 341 349 335 332 346 340 337 344 333 332 342 336 330 332 329 330 334 338 342 341 341 338 333 337 340 336 336 336 335 338 339 338 340 340 340 344 345 346 346 344
Wind_Speed
27 26 25 25 24 23 22 21 21 21 20 19 16 15 14 13 13 13 12 10 9 8 7 6 5 5 4 6 6 7 8 9 10 8 8 13 16 15 15 14 14 16 14 12 14 11 6 3 3 5 5 1 1 1 2 2 2 4 3 3 2 1 2 3 4 4 3 3 4 4 3 5 3 2 1 3 6 5 5 4 3 4 5 3 3 3 3 3
27 26 25 25 24 23 21 21 20 20 20 19 17 15 14 13 13 13 12 10 9 8 7 7 6 5 5 6 5 6 6 7 8 9 15 16 16 17 18 16 16 17 13 12 12 2 3 3 1 7 6 2 2 2 3 2 3 3 2 3 1 3 2 3 6 5 3 5 5 4 4 4 4 3 1 3 4 4 5 4 3 4 4 3 4 6 7 9
26 26 25 25 24 23 22 20 20 19 19 19 17 15 13 13 13 12 11 10 9 8 8 7 6 5 7 7 5 4 3 3 4 8 13 11 13 17 17 17 17 14 10 10 7 3 2 2 5 7 4 3 2 3 3 2 3 1 3 4 1 3 1 2 7 5 4 7 7 4 4 5 4 3 1 4 5 3 4 1 1 3 1 1 2 5 8 10
26 26 25 24 24 23 22 20 19 18 18 19 18 15 13 13 12 12 12 11 9 8 8 7 6 6 7 7 4 1 1 2 2 8 9 6 8 9 11 14 14 11 8 8 6 2 2 3 7 6 4 3 3 3 3 2 2 1 3 3 2 4 3 2 6 6 6 7 7 5 6 5 3 2 2 6 5 1 3 4 3 4 5 3 0 2 7 9
27 26 25 24 23 22 22 21 20 18 17 18 18 15 13 12 11 11 12 11 10 9 8 7 6 5 6 6 1 3 2 4 4 9 9 6 6 6 9 11 11 9 6 6 5 3 2 4 6 5 4 3 3 3 2 3 3 3 3 3 4 4 4 3 5 8 7 6 6 6 6 5 3 2 3 6 4 3 4 4 5 6 6 5 4 4 7 7
28 27 26 24 23 22 22 22 20 18 16 17 17 15 13 12 11 11 12 12 11 10 9 7 5 4 5 4 1 3 2 2 6 9 7 5 5 6 7 9 8 7 6 7 4 4 5 3 6 4 3 3 1 2 2 3 4 4 2 4 4 3 6 5 6 8 7 7 6 6 5 5 4 2 3 4 2 4 4 6 7 6 7 8 7 6 6 5
29 28 26 24 23 23 22 22 21 19 16 16 17 15 13 11 10 11 12 12 12 10 9 7 5 4 4 1 1 1 2 2 8 8 5 4 4 5 6 7 8 7 7 7 4 4 5 5 6 3 4 3 1 3 3 2 4 5 3 4 4 5 8 7 7 8 7 8 6 6 6 5 5 3 3 2 1 4 6 7 8 8 9 9 7 6 6 6
31 30 28 25 24 23 23 22 21 19 17 16 16 16 13 10 10 11 12 12 12 11 9 8 6 5 4 1 1 2 1 5 8 7 5 4 5 7 7 7 9 9 8 10 6 5 5 6 7 3 3 2 2 3 4 4 4 3 4 5 5 5 7 7 8 8 7 7 6 7 6 4 5 5 4 3 4 6 7 7 7 7 7 7 6 6 6 6
32 31 30 27 25 24 24 23 22 20 17 16 16 15 13 10 9 12 13 12 12 11 9 9 8 6 5 2 2 3 3 7 7 7 4 2 5 8 10 8 9 9 7 11 9 7 6 5 7 5 4 3 4 5 4 5 1 2 6 7 6 6 6 7 7 8 7 5 6 7 6 5 6 5 2 3 6 6 7 7 6 6 6 6 6 6 6 6
33 33 31 29 26 25 25 24 23 21 18 16 15 15 13 10 8 12 13 12 13 10 8 10 10 8 5 1 3 3 4 9 5 6 4 3 4 8 10 8 7 8 8 9 9 8 7 6 6 6 6 3 4 4 4 6 3 4 10 8 9 9 6 6 6 6 7 6 8 8 6 6 5 5 1 5 5 6 7 6 6 6 6 7 5 5 6 6
33 33 32 30 28 26 26 25 24 21 18 16 15 14 13 10 9 12 13 14 13 9 8 9 11 9 4 1 2 2 6 12 7 4 3 2 3 3 1 5 4 4 6 5 4 7 9 11 8 6 4 3 4 2 2 5 5 8 12 10 10 10 7 7 6 5 7 5 7 8 7 5 2 1 3 6 5 5 7 6 5 6 6 6 5 5 5 6
32 33 33 32 29 28 27 27 25 23 19 17 15 14 13 10 9 11 14 14 13 10 10 10 10 9 4 2 4 5 4 10 11 4 2 4 5 7 10 7 6 7 7 4 6 14 14 13 10 6 4 6 5 3 2 3 5 8 10 9 9 7 5 6 6 6 7 5 7 9 6 1 3 3 4 6 5 5 6 5 6 6 6 5 5 4 4 6
32 33 33 33 31 29 29 28 26 23 20 17 15 14 12 10 9 11 14 14 14 13 10 9 10 8 3 1 7 11 13 10 10 7 7 8 9 10 10 7 6 6 10 11 9 16 20 16 13 6 4 6 4 3 3 2 5 5 5 6 7 5 2 7 7 7 6 6 10 9 3 4 6 5 5 7 6 5 5 5 5 6 5 4 4 4 3 6
32 33 33 33 32 31 30 29 27 24 20 18 15 14 12 11 10 11 13 14 14 13 9 9 11 5 2 5 14 15 12 7 7 8 8 9 10 12 10 8 10 7 10 17 16 17 19 20 16 6 3 4 3 3 4 4 4 4 3 3 3 4 4 7 8 8 5 7 12 7 2 6 5 5 7 7 7 6 6 6 5 6 5 4 4 4 4 5
32 33 33 33 33 32 31 30 28 25 21 18 15 13 12 11 10 11 12 14 15 14 11 11 7 1 2 7 14 12 7 7 7 11 8 11 12 9 8 9 11 9 9 14 15 16 18 18 11 4 2 3 4 5 4 3 3 3 4 1 1 2 4 5 8 9 7 7 10 6 1 4 4 6 8 7 8 7 7 7 7 7 5 6 5 5 5 4
33 33 34 33 34 33 31 31 29 25 21 18 16 13 11 11 11 11 12 14 16 15 11 7 2 2 2 5 9 9 5 6 7 11 10 12 11 9 8 8 8 9 12 14 14 15 16 13 6 2 2 4 5 6 4 4 4 3 3 2 2 3 4 4 6 9 9 8 8 6 3 2 3 7 9 8 9 8 8 8 7 7 6 7 6 5 6 5
33 34 34 34 34 33 32 31 29 25 21 18 15 12 10 9 11 12 12 13 15 13 8 4 2 3 1 6 8 6 7 8 7 11 12 12 11 12 11 5 5 9 10 12 11 9 8 7 3 2 3 3 4 5 4 3 1 3 2 2 2 3 4 4 5 6 7 9 7 6 4 3 4 7 9 9 10 9 8 8 8 7 6 6 6 6 6 7
35 35 35 35 34 33 33 31 29 25 20 17 15 12 8 7 11 12 11 10 9 7 5 3 1 2 2 5 4 5 9 10 8 9 13 15 13 14 13 6 5 6 5 5 5 4 3 3 3 2 3 3 3 4 4 3 4 3 2 3 1 2 3 6 6 5 9 9 6 6 4 5 5 7 10 10 11 11 10 9 7 6 7 6 6 7 7 8
36 35 35 35 35 34 33 31 29 25 21 19 14 8 5 5 6 7 7 6 1 1 2 2 3 2 4 5 5 9 10 11 10 10 14 14 11 12 12 6 6 5 3 3 2 2 2 3 4 3 1 0 1 5 6 6 7 6 5 4 4 4 3 6 7 7 11 8 5 7 6 6 6 8 11 11 12 12 10 9 7 6 7 6 6 7 8 8
36 36 36 36 35 34 32 30 28 22 20 21 15 6 5 7 4 3 7 5 2 5 4 5 4 4 8 6 4 8 9 9 6 7 13 15 10 7 4 2 6 4 2 3 0 1 3 4 1 3 4 5 6 6 5 6 6 5 4 3 4 4 3 7 7 7 11 7 4 9 8 8 9 10 12 11 11 10 10 9 8 8 7 6 7 7 9 8
36 37 37 36 36 34 31 30 23 18 19 20 15 6 3 4 2 2 6 6 6 6 7 10 8 8 14 13 9 6 5 4 3 3 9 14 10 7 1 2 5 3 0 3 1 2 5 4 4 6 7 7 7 7 5 5 5 3 4 2 3 3 5 7 7 7 10 5 4 8 8 9 10 11 12 11 11 11 11 11 11 11 9 7 8 8 8 6
36 37 38 37 37 34 31 27 18 16 19 18 13 5 2 3 3 2 3 4 8 7 7 11 8 8 15 19 20 12 4 2 4 5 8 10 7 5 3 3 3 2 1 2 3 4 4 0 7 7 7 6 5 6 6 5 4 3 2 1 1 3 3 3 6 8 7 3 3 8 8 8 9 10 11 11 12 11 11 13 13 12 10 8 9 8 7 7
36 37 39 38 37 34 30 23 12 15 21 15 10 8 8 9 9 8 2 1 7 7 6 7 6 7 10 15 19 12 5 4 5 5 8 9 3 4 6 3 3 3 1 3 3 2 1 4 7 5 7 7 3 4 6 3 1 2 3 3 1 2 4 3 4 5 3 2 4 8 6 2 3 5 8 10 11 8 10 12 11 11 11 10 10 9 9 10
36 37 38 39 38 34 29 18 10 19 21 10 8 16 19 16 15 14 3 1 5 6 6 8 7 5 10 12 10 6 4 3 6 6 9 9 3 4 6 4 5 3 4 5 6 5 4 7 4 4 7 8 4 1 4 5 1 2 3 5 3 3 5 4 3 2 3 4 3 7 4 2 2 4 7 7 7 6 7 10 9 10 9 8 8 8 10 12
36 37 37 39 38 35 28 11 10 25 20 7 11 21 22 18 19 16 4 1 4 6 6 7 5 5 11 10 5 5 2 2 5 8 10 9 6 4 3 3 5 3 6 5 6 3 6 6 4 6 5 6 4 2 3 5 2 2 1 5 6 5 5 4 3 4 4 5 1 6 4 3 4 4 6 5 5 6 5 8 10 9 7 6 7 8 9 10
35 35 37 38 37 38 25 4 13 26 13 5 15 21 20 18 21 14 3 3 3 5 3 2 2 4 7 4 3 3 4 2 5 6 8 7 5 4 3 1 1 5 6 5 4 1 4 3 7 7 6 5 5 2 5 6 5 1 2 4 5 5 4 4 5 5 3 1 2 3 5 2 4 3 5 4 4 7 6 8 9 7 6 6 8 8 8 9
35 34 37 36 37 37 17 3 18 20 4 7 19 20 20 21 19 9 4 5 4 5 2 1 0 3 5 3 3 6 2 5 4 3 6 8 5 3 3 3 1 4 4 4 1 2 4 2 5 6 5 5 4 2 4 6 7 1 3 4 6 6 5 4 6 5 2 1 3 4 5 3 2 4 5 2 3 4 5 8 8 6 6 6 8 9 9 10
34 34 36 35 37 31 11 9 19 10 3 14 20 20 22 21 13 3 6 3 5 3 2 2 1 3 4 2 4 5 3 4 0 4 6 7 4 3 1 5 4 5 4 7 2 4 3 4 5 6 4 3 3 4 6 6 6 3 3 5 6 6 6 5 6 4 1 3 3 6 3 4 2 5 5 3 4 1 2 6 7 7 8 7 8 9 10 10
34 34 35 36 37 25 12 16 15 7 12 19 18 21 22 16 6 3 5 1 4 3 1 1 1 1 2 1 2 2 2 2 3 5 2 3 4 3 3 6 5 5 4 7 6 4 3 6 8 8 5 3 5 5 7 7 4 3 4 6 5 5 5 4 5 4 3 5 1 6 2 4 3 5 4 3 1 2 4 4 5 5 8 9 9 10 9 8
35 34 34 37 36 25 20 20 11 8 18 18 16 20 17 8 4 5 1 2 3 3 1 1 1 3 3 3 1 3 3 3 4 2 2 1 1 2 2 2 4 4 0 3 5 5 3 3 4 5 5 5 4 4 5 7 8 6 6 7 6 5 4 4 3 3 5 3 4 6 1 5 1 5 3 1 2 4 4 4 3 2 6 10 10 10 10 8
35 34 33 35 34 25 17 13 10 14 17 14 15 15 7 3 4 5 3 4 2 3 1 1 3 3 6 5 2 3 3 3 3 2 1 1 2 3 2 2 3 4 4 4 0 3 1 1 1 2 4 6 5 2 2 5 9 8 5 5 5 4 4 4 4 4 5 1 6 5 1 5 2 4 4 4 5 5 5 4 4 2 5 8 9 9 10 9
35 35 33 32 31 23 14 12 15 16 12 11 12 7 4 2 1 2 4 3 2 3 3 3 4 3 5 6 4 4 3 3 3 5 5 2 2 2 1 3 2 4 2 1 1 0 2 2 2 2 2 6 7 3 4 4 4 6 5 5 5 2 4 3 3 3 1 3 4 3 1 2 1 5 6 5 6 6 5 5 5 4 6 8 9 9 9 8
35 35 33 30 28 26 21 18 16 11 10 10 6 4 6 3 3 5 4 2 2 4 1 1 4 5 6 5 3 4 3 4 5 4 5 4 3 4 4 5 6 5 2 3 2 1 1 4 1 0 2 2 8 6 2 1 1 5 5 4 4 2 3 1 2 1 1 4 4 2 1 1 3 4 6 6 7 7 6 5 5 5 7 9 10 10 9 7
36 33 33 30 28 25 17 12 9 6 8 8 4 4 5 3 5 4 4 4 4 3 2 1 4 5 6 6 6 4 3 5 5 4 4 4 2 4 4 5 5 5 2 2 2 3 3 2 3 4 2 2 6 7 8 6 4 4 4 5 4 3 4 3 3 2 2 3 3 2 1 1 1 3 5 6 6 6 5 5 4 3 4 7 8 9 8 7
34 32 32 28 22 17 8 3 2 2 3 3 5 4 4 5 4 2 3 4 2 3 5 6 4 6 6 6 5 6 5 5 5 4 4 4 4 5 4 5 6 5 3 3 2 2 4 3 7 6 4 6 6 5 7 7 4 3 2 4 1 3 5 3 3 5 4 1 1 1 1 3 3 5 6 3 4 5 5 4 0 3 3 6 7 8 8 7
35 32 28 23 21 17 8 2 3 5 2 4 5 1 4 4 4 3 3 3 1 3 9 11 4 6 5 4 3 5 6 4 5 5 3 4 5 5 5 5 7 8 5 4 2 0 3 3 5 1 1 6 7 6 6 6 4 2 2 2 3 4 7 4 2 1 4 3 1 1 1 4 2 4 6 4 6 6 5 6 2 5 5 6 7 8 7 7
35 31 22 23 23 11 4 5 7 6 2 6 4 5 4 3 4 3 3 4 4 4 6 8 3 5 4 3 3 5 4 1 3 4 2 2 3 4 4 2 4 7 6 4 2 2 4 2 5 2 4 5 4 4 3 3 7 4 2 4 2 3 4 4 4 2 4 2 3 1 2 3 1 2 5 4 6 7 6 5 4 5 5 6 6 7 8 8
31 25 17 19 15 1 9 9 10 6 4 4 2 4 3 3 4 3 4 6 6 4 3 4 3 1 2 3 3 4 4 2 3 4 2 1 2 3 5 3 1 3 5 5 3 1 4 1 6 3 7 3 3 3 1 3 4 5 3 5 4 3 0 2 3 1 1 2 2 1 1 2 3 3 4 4 7 8 7 6 6 6 6 6 6 7 7 7
21 12 7 9 7 5 12 13 10 4 5 2 2 3 3 4 5 5 6 6 4 3 3 4 3 1 1 2 3 3 4 5 5 3 2 2 2 4 4 4 1 3 5 6 5 1 3 4 4 6 4 0 4 3 2 4 1 3 2 2 2 3 3 2 2 3 4 2 1 1 1 3 4 5 6 9 10 9 7 6 7 8 7 7 6 7 7 7
10 2 5 7 11 5 12 13 5 4 3 3 3 3 3 3 5 7 7 5 3 2 4 5 1 1 2 2 3 4 3 4 4 3 2 3 3 3 2 3 3 3 5 7 5 1 3 4 2 6 4 2 1 2 5 5 2 3 2 1 0 1 1 2 1 1 4 4 3 3 1 5 6 4 7 10 9 8 8 7 7 7 7 7 7 7 7 7
4 1 5 1 11 11 1 6 2 2 3 3 2 3 4 3 5 8 9 7 5 4 7 7 4 3 3 2 2 3 2 1 3 3 3 2 3 1 4 4 6 5 5 6 4 2 2 3 3 2 3 1 4 6 7 9 7 5 4 4 3 2 2 4 2 2 2 4 4 4 2 6 6 3 6 8 7 7 7 7 7 7 7 7 6 6 6 7
1 1 7 8 11 19 7 3 2 1 3 3 3 4 4 4 5 6 7 7 6 6 6 5 3 3 3 3 2 2 2 2 3 3 3 4 6 4 4 4 6 7 6 4 1 2 3 4 2 0 2 4 7 8 4 5 6 6 4 3 4 4 5 6 3 2 1 3 2 4 2 5 6 3 6 6 5 5 5 7 7 6 6 6 5 5 5 5
2 4 15 22 19 13 4 1 4 2 2 4 4 5 5 5 4 5 6 6 6 6 4 1 2 2 2 3 2 0 1 2 3 3 1 2 4 4 5 8 8 7 6 3 1 1 2 4 3 2 4 5 6 6 4 3 5 4 1 2 5 4 4 5 5 3 3 2 2 3 1 5 6 3 5 6 3 3 2 5 6 5 4 4 4 5 5 5
2 4 12 22 18 5 1 2 2 3 4 4 4 6 5 5 5 6 7 6 6 5 3 2 2 2 2 2 2 1 1 1 3 3 0 1 1 2 6 10 8 5 3 3 3 1 1 1 3 3 4 5 6 6 7 6 3 1 2 2 4 5 6 4 1 3 3 2 4 5 2 6 6 2 4 5 4 5 3 3 6 6 4 4 4 4 5 5
4 2 4 14 12 2 3 4 4 3 4 3 5 7 5 4 5 6 7 9 9 6 1 3 3 3 4 1 1 2 2 3 2 3 2 1 0 1 5 9 8 5 3 6 6 5 2 3 4 5 3 1 1 1 2 3 3 3 1 0 2 6 8 5 1 4 2 1 4 5 4 4 4 1 5 6 6 6 3 3 3 5 4 4 4 4 5 5
3 3 2 6 5 1 2 3 3 3 3 2 4 5 4 4 4 5 6 8 10 7 4 3 3 3 4 1 1 2 2 3 2 1 1 2 1 1 2 8 9 6 7 9 7 5 4 2 3 6 7 5 5 6 5 2 1 5 3 2 1 6 7 6 4 3 4 4 3 4 6 5 3 4 6 6 7 7 6 4 4 4 4 4 4 4 3 4
1 3 2 3 4 2 2 3 2 1 3 2 2 4 4 5 5 6 4 4 6 4 2 2 1 1 3 2 2 2 3 2 0 1 2 1 1 1 2 6 7 8 10 7 3 5 5 2 1 6 6 6 7 7 5 1 3 4 4 5 3 5 5 6 5 5 6 7 3 6 6 9 7 7 8 8 7 7 7 6 6 5 5 5 4 4 4 3
2 2 2 3 3 2 2 3 3 3 3 2 2 4 6 6 6 4 3 5 7 2 1 2 3 2 3 1 1 2 4 4 2 0 1 1 3 4 3 4 2 5 8 5 3 4 7 2 3 4 2 4 4 2 2 4 3 2 3 5 6 2 3 4 4 6 7 8 6 7 8 10 8 8 9 10 9 9 8 7 7 6 5 5 5 5 5 5
2 3 3 4 3 3 4 5 4 3 4 3 2 3 4 6 7 6 4 4 7 4 1 2 5 6 5 1 2 1 2 3 3 3 1 2 2 2 2 1 2 2 5 4 2 3 5 1 3 3 2 4 4 4 5 6 4 2 3 4 7 5 0 3 3 4 5 5 5 7 10 9 7 7 9 9 8 8 7 6 5 5 5 6 5 5 5 5
1 1 3 4 4 4 5 5 3 3 4 3 3 4 4 5 7 7 5 4 5 6 3 2 5 8 8 4 2 2 1 2 2 3 1 2 2 0 2 3 2 1 3 3 1 3 5 2 4 3 4 5 6 5 6 5 4 3 4 4 6 8 5 4 3 3 6 4 1 5 9 6 3 3 4 4 6 7 7 7 6 5 6 6 5 5 5 5
6 6 5 3 4 5 4 3 2 3 3 1 2 3 3 4 7 10 9 6 4 3 5 6 7 7 7 5 2 3 3 3 3 5 4 3 2 3 3 3 5 4 2 1 1 3 4 1 1 5 5 5 5 6 6 5 6 5 4 4 6 7 5 4 2 2 6 5 3 6 7 5 2 4 5 4 8 9 8 8 6 4 5 6 6 5 5 5
6 8 6 3 3 4 3 4 3 3 3 2 2 3 4 6 10 12 8 5 2 5 5 6 7 6 6 8 4 4 5 5 4 6 5 4 3 4 4 5 7 8 5 2 2 2 4 4 2 4 4 4 5 4 4 4 7 5 5 3 4 6 6 5 5 4 1 6 7 5 6 6 5 8 7 5 7 9 8 6 6 5 6 6 6 6 5 4
Wind_Direction
1 1 2 4 4 6 8 8 7 7 8 6 3 358 353 350 349 352 357 3 5 4 5 2 3 360 324 297 281 273 274 270 273 263 245 256 259 254 255 260 267 277 284 276 265 276 328 349 309 65 82 357 43 78 79 84 65 69 72 91 125 165 190 199 157 153 152 140 138 144 137 123 118 104 75 50 69 76 62 40 14 17 33 62 90 98 81 69
360 360 0 2 2 3 5 6 5 4 4 5 3 357 351 349 348 350 354 356 356 355 2 2 358 349 320 315 306 294 283 277 283 260 257 265 265 259 257 262 268 267 260 259 257 220 43 291 186 67 62 36 357 38 76 58 63 82 105 97 178 196 203 190 142 140 129 129 138 140 142 126 128 141 96 86 103 94 82 33 17 49 30 25 62 78 78 79
359 359 359 1 1 1 3 4 3 2 1 2 1 356 349 347 346 345 349 349 349 352 0 2 353 342 328 332 334 313 281 276 297 261 267 270 256 254 254 260 263 254 239 255 270 108 85 267 107 78 59 51 4 37 54 45 63 92 108 85 229 183 118 101 134 137 115 129 133 132 130 119 137 141 90 128 123 97 117 142 84 99 176 262 38 74 83 75
360 359 358 359 360 360 1 1 1 359 358 358 358 355 347 343 343 342 342 341 344 354 2 5 355 347 335 343 7 318 147 72 295 253 261 254 230 231 229 241 244 237 234 257 287 32 231 198 91 71 67 43 353 38 48 18 65 87 104 131 180 123 91 108 136 125 108 126 133 127 119 127 161 119 112 137 116 103 186 206 186 164 190 187 157 110 101 88
1 360 359 358 359 359 360 360 358 356 355 354 354 353 346 339 338 338 337 336 342 355 4 5 356 350 333 338 53 195 103 56 287 259 257 244 220 210 208 218 223 229 241 259 283 48 155 156 84 57 65 52 360 23 20 356 70 73 44 122 138 102 108 137 128 120 120 120 122 128 129 143 152 107 149 148 134 204 200 196 186 179 190 175 170 156 113 105
2 1 0 358 358 359 359 359 356 354 352 350 350 349 345 337 331 332 333 331 337 355 5 360 354 350 333 336 169 207 140 83 273 267 258 233 222 215 210 215 215 224 239 258 267 114 143 119 70 70 58 59 65 75 54 5 64 84 44 110 138 117 121 130 119 124 128 125 136 143 136 136 125 107 148 144 176 204 170 160 171 187 194 180 165 149 129 135
4 3 1 359 359 358 357 358 355 352 349 347 346 344 342 334 328 325 328 329 333 353 360 349 351 351 336 338 142 153 126 239 254 248 238 229 234 222 219 234 230 228 230 246 254 139 147 92 81 110 87 89 130 93 91 54 75 94 126 154 154 124 123 132 131 135 137 139 152 137 124 137 137 118 103 110 163 155 144 155 169 185 185 175 164 154 157 165
7 5 4 1 360 358 357 356 353 350 346 344 341 340 336 328 325 320 323 326 331 350 355 349 357 357 339 278 151 39 299 237 225 200 203 256 269 244 228 231 236 233 228 242 234 134 130 105 112 126 92 130 138 113 112 81 65 91 141 155 136 122 127 130 135 145 146 142 142 126 123 137 138 117 104 143 158 143 146 157 162 169 172 170 173 171 169 172
8 7 6 3 0 358 356 354 352 348 343 341 337 336 331 319 319 319 318 324 330 344 355 3 4 359 342 282 124 14 257 202 201 203 205 313 302 266 251 246 248 228 212 250 241 141 122 138 156 155 141 165 123 139 148 99 93 158 135 139 126 127 131 129 145 152 147 142 135 124 112 120 128 102 69 199 181 161 148 155 161 156 169 187 190 185 178 175
8 7 6 4 1 357 355 353 351 347 341 339 334 331 326 311 310 315 312 320 329 335 357 12 7 360 350 332 77 4 229 185 210 240 229 339 304 270 263 257 262 232 211 238 226 169 158 169 169 150 134 144 119 145 149 120 157 129 116 124 126 134 136 136 163 153 133 142 145 135 126 143 142 102 128 230 200 166 150 163 175 167 186 204 203 197 190 182
6 5 5 3 1 357 354 352 349 345 339 336 332 328 322 305 302 310 307 316 325 331 349 360 358 351 338 129 111 270 203 183 205 253 240 272 250 239 188 194 205 208 207 207 145 123 162 168 137 116 111 120 128 116 98 121 133 121 117 116 120 131 133 143 171 152 131 150 155 131 116 142 156 86 197 204 191 165 163 183 193 195 205 212 208 193 192 186
4 4 3 3 0 357 354 351 349 345 337 334 329 323 318 300 295 303 304 313 320 324 334 340 347 341 325 147 193 255 255 209 213 233 177 137 134 106 88 107 109 83 89 93 64 82 122 148 118 102 113 121 130 91 99 128 105 115 119 117 125 122 130 168 177 161 148 153 147 118 85 168 226 252 208 179 176 167 175 201 204 212 224 226 211 176 176 170
2 2 1 1 360 358 354 351 348 343 335 332 326 320 313 294 288 298 302 310 315 319 325 330 332 329 337 279 271 294 305 258 210 191 160 117 107 110 93 84 91 89 89 90 90 91 103 109 95 91 100 109 135 106 115 95 74 96 98 108 130 107 159 194 176 165 152 144 150 122 72 244 240 235 197 173 173 171 199 220 211 222 237 234 211 170 171 155
1 360 359 359 359 357 354 351 347 342 335 330 323 316 305 289 284 292 299 303 309 313 314 324 326 330 81 286 294 306 299 260 190 202 187 127 115 117 110 102 106 119 102 95 103 102 98 94 85 71 57 94 134 93 54 35 56 94 87 73 118 120 198 197 169 164 146 156 161 122 76 237 247 221 192 182 175 176 209 225 219 226 228 225 212 173 176 162
359 358 357 357 357 357 354 350 347 341 334 327 321 311 298 285 280 285 293 296 302 305 306 317 311 313 36 297 303 320 283 230 204 226 204 135 135 132 129 128 115 110 106 103 105 102 95 90 78 66 32 34 76 74 41 23 22 65 108 325 341 125 193 194 174 172 154 166 171 135 122 244 251 213 194 183 180 184 207 222 222 222 208 203 202 166 168 163
358 357 356 355 355 355 353 350 347 341 332 326 319 306 293 283 278 279 285 291 297 298 300 309 264 146 21 290 310 333 268 220 196 205 184 148 149 148 151 148 119 104 110 113 104 93 89 80 62 79 78 40 69 86 63 39 1 8 107 194 254 144 177 187 184 190 161 156 184 174 165 233 244 212 197 186 187 192 208 224 223 215 201 189 185 164 161 157
357 356 354 354 353 354 353 350 347 340 332 327 322 307 289 278 278 279 283 292 295 294 287 263 179 122 281 274 303 313 228 213 188 177 174 178 168 145 155 164 108 103 104 108 100 81 75 70 58 43 49 64 86 94 71 56 294 308 67 152 218 161 164 173 192 221 173 155 186 175 158 217 217 192 192 193 192 196 210 224 226 214 201 190 178 166 166 168
357 355 353 352 352 353 352 350 347 341 331 330 328 311 297 282 279 280 288 298 296 299 297 255 156 90 270 262 273 257 222 206 188 174 176 189 179 155 171 186 109 98 62 66 80 52 37 42 65 57 25 35 56 95 111 169 183 190 171 143 187 182 175 179 190 216 183 172 178 157 173 230 211 182 193 200 194 198 210 215 222 215 202 194 178 170 173 177
355 355 353 351 351 351 352 352 349 341 333 338 341 322 327 331 293 285 315 336 317 273 293 240 144 139 241 234 239 254 225 177 163 175 177 184 179 165 181 176 104 102 56 35 17 31 71 42 49 87 90 83 183 147 157 187 169 164 180 153 149 170 194 198 199 192 177 172 165 164 186 205 194 193 198 202 198 201 211 211 215 215 207 195 182 178 178 183
354 354 353 351 351 350 352 353 349 347 347 352 3 24 31 12 355 335 339 343 221 222 255 250 205 222 263 272 274 258 217 170 165 187 185 188 175 147 162 95 64 55 76 121 210 360 86 84 92 179 198 204 192 179 165 162 156 151 153 156 171 172 222 218 211 190 170 162 185 182 183 187 189 200 203 201 199 202 207 206 208 210 209 198 191 184 179 187
352 354 353 351 350 350 353 354 353 358 360 3 14 38 74 35 28 321 320 307 264 237 245 257 246 250 264 272 274 243 182 175 242 261 213 197 164 135 173 52 63 29 273 149 145 2 64 97 202 206 205 208 188 173 153 141 160 149 135 182 209 188 213 210 191 178 167 158 197 179 169 189 196 200 206 199 196 206 203 197 202 206 206 200 196 185 174 174
352 353 352 351 349 349 352 355 358 2 5 15 28 41 85 43 29 324 320 305 292 270 258 266 257 256 259 266 265 238 161 193 251 291 233 192 148 147 172 76 114 186 236 68 46 9 25 153 228 212 189 200 190 161 144 145 171 152 127 135 171 162 159 172 167 170 167 145 187 175 167 196 209 204 207 201 200 208 201 195 197 198 201 200 195 180 160 154
351 351 352 351 349 347 351 357 4 7 9 18 28 16 6 12 6 347 343 238 297 280 269 270 255 263 264 274 268 231 175 189 208 258 221 182 156 160 145 118 155 169 156 121 116 90 20 247 237 204 163 171 184 150 127 107 116 142 137 110 110 126 101 147 192 167 146 87 161 168 158 203 236 225 223 215 212 213 203 201 198 194 198 198 191 172 159 161
349 350 351 350 349 347 349 358 15 7 5 15 19 4 2 6 1 355 2 167 297 272 251 242 235 252 251 264 266 202 184 187 171 218 208 173 163 159 155 159 136 146 200 169 146 152 227 249 216 137 149 159 159 144 108 93 42 256 165 129 129 119 116 163 197 104 48 16 109 131 89 349 259 230 239 238 230 226 209 201 201 203 200 187 175 164 166 170
347 348 349 350 349 345 346 2 15 356 352 20 15 356 357 357 351 354 23 80 305 279 271 241 222 241 240 245 228 173 175 224 187 201 191 171 168 151 163 157 123 195 215 156 132 169 254 246 147 132 158 149 134 180 173 138 126 304 233 155 150 126 115 132 106 79 44 4 49 112 88 296 278 237 238 255 233 225 213 200 202 205 194 169 162 166 173 176
345 346 347 348 348 346 348 13 353 346 342 10 0 350 351 346 341 346 39 53 320 275 285 234 180 226 227 211 183 125 62 281 237 203 185 188 193 148 156 195 131 204 197 151 136 186 253 202 134 158 174 130 95 129 190 153 111 360 239 158 139 108 93 101 95 88 86 286 269 101 119 226 302 270 251 280 223 202 195 206 211 201 185 174 168 168 174 178
342 344 344 344 347 348 350 319 335 344 348 338 344 346 343 336 334 340 64 42 309 258 218 225 66 176 199 191 141 96 83 260 277 239 201 192 192 118 156 226 225 199 169 117 104 233 218 163 114 148 144 106 93 122 196 147 107 224 245 122 118 108 94 99 92 92 153 213 328 7 101 127 312 264 265 319 127 154 174 200 213 196 178 177 172 169 176 182
338 340 342 340 343 346 340 316 328 337 348 332 335 338 335 332 332 1 85 65 269 257 169 214 180 165 199 180 121 118 207 228 126 262 229 183 180 71 133 222 199 206 168 117 156 250 207 160 139 138 105 114 180 191 183 134 104 218 215 104 113 112 99 97 91 86 85 73 357 319 47 87 282 275 304 13 104 123 225 200 205 191 170 166 172 177 182 183
335 337 339 337 339 343 336 320 312 306 335 336 332 328 327 329 340 73 82 99 250 270 207 145 92 237 245 126 137 173 221 180 189 251 257 178 203 105 176 218 174 193 193 131 165 226 224 186 162 136 125 189 222 193 162 136 122 180 124 90 78 75 76 75 85 87 41 61 253 279 48 95 271 289 323 5 104 245 260 238 225 196 169 163 172 183 185 179
332 333 336 335 334 335 328 317 304 321 335 333 325 322 324 335 43 78 64 245 248 266 248 110 176 203 170 137 235 236 201 209 222 263 2 246 258 81 180 212 106 133 88 76 158 200 238 201 150 131 152 179 190 177 160 143 136 119 88 78 64 40 39 46 53 77 57 24 264 261 115 108 307 290 272 253 222 214 225 257 270 211 167 167 171 182 184 179
329 330 332 331 328 324 317 310 315 330 329 329 328 327 338 18 70 99 208 233 258 270 234 220 233 176 152 157 214 239 212 228 215 178 247 289 7 6 3 12 37 54 36 16 359 217 258 75 167 202 162 130 113 104 49 107 123 109 88 90 78 18 9 21 358 38 73 297 265 257 157 100 104 267 255 248 257 229 190 211 242 217 171 168 172 181 185 182
328 327 327 326 323 313 292 291 313 322 326 337 340 352 68 57 29 164 234 282 306 236 202 198 215 185 169 168 201 225 199 232 224 182 196 195 176 223 186 179 163 54 36 282 14 326 245 239 226 225 156 116 112 96 27 34 71 89 100 91 77 26 12 17 340 15 90 239 260 241 171 90 192 246 254 262 266 244 202 199 220 206 168 166 176 182 186 183
326 326 324 323 318 306 293 300 312 318 331 341 353 41 80 92 232 218 233 276 236 232 265 191 210 188 161 156 215 230 195 238 242 198 195 177 177 225 245 217 167 108 176 202 101 108 283 310 299 128 319 109 124 128 135 257 118 124 141 125 107 97 64 7 284 345 271 244 261 249 160 6 297 272 248 241 245 234 220 211 215 212 181 173 179 180 182 179
326 326 324 318 311 303 300 309 309 303 320 337 42 64 88 147 237 233 223 245 247 273 328 263 221 184 165 181 206 194 186 250 241 197 194 153 152 235 267 255 187 125 121 143 137 159 140 311 224 186 237 166 151 168 171 167 153 166 175 132 131 148 138 180 211 180 206 250 281 319 66 157 220 269 241 224 244 250 239 231 210 210 186 162 166 173 174 172
326 326 323 315 307 303 308 320 285 235 298 355 66 79 149 199 247 225 222 245 259 302 306 288 237 176 193 222 215 187 190 234 227 197 199 160 172 211 217 231 200 151 109 128 217 176 128 223 228 208 199 169 179 201 160 127 130 207 166 104 155 186 143 140 173 172 168 153 304 321 222 210 200 267 274 256 277 285 285 289 358 135 147 131 149 170 171 170
328 332 329 314 304 301 296 272 170 164 160 68 78 155 201 213 220 187 233 262 318 323 322 315 265 172 200 238 242 221 203 208 195 191 225 189 192 212 208 217 181 157 145 143 186 197 108 238 247 237 218 189 189 194 159 135 150 188 127 153 229 160 122 108 125 94 79 99 262 242 240 295 332 303 302 314 293 292 307 303 256 165 158 133 150 174 173 173
333 336 324 305 308 304 231 197 171 161 101 81 117 218 220 222 223 216 281 312 328 333 341 323 270 168 187 207 238 237 199 214 201 188 249 237 229 228 189 183 151 153 163 147 171 202 131 257 276 159 175 223 200 170 177 149 140 133 175 198 182 83 85 93 111 18 44 112 269 274 193 273 354 289 299 304 273 269 276 263 211 183 173 152 165 183 181 177
332 329 308 301 315 119 159 182 180 154 70 83 171 234 213 233 264 286 314 321 327 339 344 298 260 168 165 186 246 240 173 197 222 192 227 225 242 225 156 135 78 148 163 131 112 174 119 49 295 226 182 229 25 91 298 310 130 132 179 174 118 98 272 73 115 152 111 154 283 319 224 237 190 221 255 229 229 241 248 231 190 189 193 177 180 190 184 170
331 328 305 326 1 141 166 172 173 110 59 115 217 253 230 247 274 284 297 304 301 300 285 251 222 17 317 201 256 267 176 194 211 185 189 172 221 247 160 137 163 168 152 120 112 171 108 97 285 274 225 231 28 81 204 285 331 87 114 165 119 130 159 137 146 156 138 155 189 107 291 266 227 215 204 207 219 221 215 200 189 197 198 190 187 189 187 171
341 332 283 353 39 89 167 163 138 60 81 198 202 231 270 281 278 273 278 285 275 245 247 248 232 22 283 255 286 287 212 197 202 185 199 184 184 259 241 142 142 145 111 89 96 110 66 98 210 290 321 60 58 191 179 187 172 90 98 214 10 53 111 110 110 137 128 138 149 144 203 262 251 211 195 211 215 210 206 193 192 205 204 204 196 184 187 179
345 333 271 345 35 9 111 150 67 85 165 251 216 226 278 276 271 281 283 282 272 235 230 238 232 187 206 243 290 283 277 234 208 198 220 201 147 208 258 194 153 130 86 69 78 120 95 114 173 293 348 40 242 238 191 172 166 143 152 190 172 139 103 81 32 304 114 126 153 153 180 259 259 196 196 220 209 204 211 189 188 210 209 214 213 189 186 182
233 250 263 258 322 340 353 145 293 212 185 253 225 231 270 257 263 286 289 291 288 263 238 222 218 196 196 209 210 256 304 296 240 217 210 191 169 178 217 173 131 108 98 94 142 186 132 106 100 287 259 240 259 264 226 164 146 134 141 160 144 129 120 120 160 246 86 95 135 119 119 265 265 204 191 218 207 197 200 171 171 203 200 197 206 193 183 179
194 275 278 280 300 333 13 207 309 306 244 263 255 259 267 263 277 286 286 295 291 277 272 231 225 219 208 198 171 228 331 312 278 263 221 182 182 184 159 133 110 93 97 119 239 286 73 77 61 320 298 300 306 312 329 37 79 99 115 130 141 151 139 144 169 170 130 139 135 96 89 266 278 256 190 200 184 138 146 151 146 153 164 163 176 182 171 163
287 289 282 288 296 319 162 226 261 259 269 289 287 284 280 272 273 273 282 288 273 274 306 295 264 252 245 189 131 217 188 110 298 291 302 158 187 157 134 128 120 106 116 168 180 135 76 96 83 53 6 349 346 346 347 356 27 130 229 228 176 143 99 103 130 80 94 185 138 119 198 256 281 294 161 170 139 106 122 171 145 132 150 169 170 166 149 141
298 268 265 289 293 253 177 193 167 223 280 316 299 291 287 279 261 249 266 277 265 253 246 268 279 292 274 242 80 272 185 153 244 303 332 284 316 69 114 119 112 100 136 162 143 108 124 153 112 108 116 137 209 294 323 321 311 278 252 13 168 145 127 141 140 80 102 197 114 128 189 248 288 346 132 147 131 121 166 202 128 112 138 168 171 163 148 144
312 297 283 300 308 116 198 225 164 204 258 294 299 280 252 258 275 266 267 269 256 232 189 228 275 321 306 329 60 281 228 186 210 287 312 270 324 332 125 113 106 118 142 142 124 92 89 92 107 135 154 172 188 221 233 196 319 289 288 34 213 197 156 121 108 126 162 148 130 188 176 155 197 181 152 157 148 148 179 181 123 114 135 165 183 174 149 141
280 279 270 313 330 343 310 317 48 207 251 252 272 279 279 288 304 303 291 274 260 236 192 245 249 353 298 326 356 279 274 298 70 103 284 267 78 26 65 88 105 135 134 120 99 93 90 55 143 141 164 193 191 218 250 42 36 303 309 360 324 226 170 116 132 179 149 119 168 235 175 152 191 194 167 172 170 163 175 172 162 167 166 163 166 152 132 133
235 257 290 335 311 279 297 324 352 342 313 311 261 271 287 284 281 285 288 305 310 317 89 328 329 277 236 230 30 280 296 335 10 88 296 13 66 55 34 26 63 132 119 78 18 98 106 136 193 145 194 240 210 242 338 39 34 297 310 1 19 19 186 162 179 185 150 140 191 215 169 164 192 196 180 181 178 173 179 178 171 170 162 146 141 152 163 171
268 264 314 348 313 274 293 301 314 329 313 310 279 261 273 273 268 261 256 301 319 319 213 270 295 289 275 225 137 204 301 346 328 299 307 60 61 72 76 5 342 48 91 76 30 90 101 180 227 135 43 316 314 341 26 44 32 358 332 1 49 55 126 170 171 174 135 135 169 158 157 176 193 191 192 191 179 168 163 159 156 157 157 150 154 179 194 200
287 301 332 346 314 297 295 287 291 302 298 297 272 264 268 270 279 288 281 268 290 310 334 328 299 299 299 294 137 138 146 137 192 265 264 61 17 357 166 176 178 39 49 78 61 62 87 200 235 95 53 321 315 358 25 37 65 64 345 354 60 60 41 56 92 105 87 81 96 122 141 185 224 157 161 163 144 131 128 142 161 170 161 151 162 192 206 215
258 297 311 302 295 295 288 286 273 257 276 283 255 273 287 293 317 331 315 270 255 330 11 354 329 323 322 329 45 137 172 163 195 242 217 167 200 206 193 182 156 129 77 87 93 67 87 133 274 65 56 291 308 16 1 360 59 52 341 352 67 74 60 51 60 122 125 131 118 104 134 185 200 109 106 115 125 125 133 148 152 150 142 137 146 161 174 198
275 307 309 264 268 283 289 307 295 253 258 230 226 303 322 316 333 344 327 290 329 20 16 355 346 351 337 322 306 216 200 193 220 250 225 178 194 221 220 199 164 147 152 134 74 92 116 114 102 86 89 276 296 4 359 12 41 6 285 224 120 104 100 71 24 358 87 132 137 152 185 199 164 127 115 115 126 131 141 147 138 136 142 141 142 144 155 190